Tracking 30995 objects as of 5-Jul-2025
HD Live streaming from Space Station
objects crossing your sky now

SL-14 R/B

Track SL-14 R/B now!
10-day predictions


NORAD ID: 12988
Int'l Code: 1981-117B
Perigee: 603.0 km
Apogee: 626.4 km
Inclination: 82.5 °
Period: 96.8 minutes
Semi major axis: 6985 km
RCS: 4.5053 m2 (large)
Launch date: December 3, 1981
Source: Commonwealth of Independent States (former USSR) (CIS)
Launch site: PLESETSK MISSILE AND SPACE COMPLEX (PKMTR)

Note: This is a ROCKET BODY
Your satellite tracking list
STARLINK-5901
Track 1 satellite(s)




NASA's NSSDC Master Catalog

Two Line Element Set (TLE):
1 12988U 81117B   25186.53413583  .00000359  00000-0  37406-4 0  9991
2 12988  82.5226 193.1715 0016704 201.0391 159.0141 14.86924929356229
Source of the keplerian elements: AFSPC